Theta_e
300 300 300 301 300 299 299 299 299 298 299 300 302 304 308 310 312 312 310 309 309 310 310 311 311 311 311 311 311 311 312 313 313 312 313 313 313 312 312 312 312 311 310 310 309 309 309 309 310 309 309 308 309 308 307 307 307 308 308 309 310 311 311 312 312 311 309 307 308 309 310 311 312 312 311 311 312 311 312 315 316 315 313 311 312 313 315
300 300 300 301 300 299 299 299 299 298 299 300 301 305 308 309 310 312 311 309 310 310 310 310 311 311 310 311 311 311 312 313 312 312 313 313 313 313 313 312 312 311 310 310 310 311 311 311 311 311 310 309 308 308 307 307 308 308 309 311 312 311 311 312 313 313 310 309 309 310 310 311 312 312 311 312 312 312 313 314 316 317 313 311 313 313 314
300 300 300 300 300 299 299 299 299 299 299 299 301 305 307 308 310 312 311 310 310 311 310 310 311 311 311 311 311 311 312 312 312 313 313 312 312 313 313 312 312 311 311 311 311 311 312 312 312 311 311 310 309 308 307 307 307 308 310 312 311 311 312 313 314 313 311 310 311 310 311 311 312 312 311 312 312 312 314 315 316 318 315 312 313 313 315
300 300 300 300 300 299 299 300 299 299 299 299 301 304 307 309 310 310 311 311 311 311 311 311 311 311 311 311 311 312 312 312 313 314 313 312 312 313 312 312 312 312 312 313 312 311 311 312 312 312 312 312 309 308 308 307 307 309 312 311 311 313 314 314 314 314 312 311 311 310 311 311 312 312 311 311 312 312 315 317 316 317 317 314 315 317 318
300 300 299 300 300 299 299 300 299 299 300 300 302 306 308 309 309 308 309 309 309 310 311 312 312 311 311 311 312 313 313 312 313 314 314 312 312 313 312 312 313 313 313 314 314 313 312 312 312 312 313 312 311 310 308 307 309 311 311 310 313 315 316 315 315 315 313 313 311 310 311 311 312 313 312 312 313 314 317 318 318 319 318 316 319 323 321
300 300 299 300 301 299 299 300 299 299 301 301 303 307 308 308 307 307 308 307 308 308 309 310 310 310 311 312 312 313 313 312 312 313 313 312 312 313 312 313 313 313 313 314 315 315 314 314 314 314 315 314 313 313 309 307 310 311 310 312 314 316 316 316 316 316 315 315 314 311 310 312 312 313 313 313 313 315 317 317 318 320 320 320 323 324 322
299 299 299 300 300 299 299 299 299 300 301 303 305 306 305 305 306 306 306 305 306 307 308 309 309 311 312 312 312 313 311 311 312 312 312 312 312 313 313 313 313 312 313 314 314 315 316 316 315 316 316 316 315 315 312 310 309 309 313 316 317 317 317 317 317 318 318 317 315 312 311 312 313 312 312 313 313 316 317 317 318 322 324 326 328 328 326
299 298 298 300 300 299 299 299 299 300 301 304 306 305 303 304 304 304 303 304 306 307 309 310 310 310 311 311 311 311 311 311 311 311 312 313 313 314 314 314 313 312 313 314 315 315 315 316 316 316 316 316 315 315 315 313 312 311 315 317 318 317 317 318 317 318 318 316 315 314 313 312 313 313 312 313 314 315 317 318 320 324 326 329 332 332 329
298 298 298 299 300 299 299 299 299 300 301 304 304 304 303 303 303 303 302 303 306 307 309 310 310 309 310 311 311 310 310 309 310 311 311 312 313 314 314 316 315 314 314 314 315 315 314 315 316 315 315 316 316 315 315 314 314 314 317 318 319 318 317 318 319 318 318 317 316 316 314 313 313 314 313 313 314 315 317 319 320 323 326 328 329 328 326
299 298 298 299 300 299 299 299 299 300 301 303 303 303 302 301 302 302 302 303 305 306 308 309 309 310 310 310 310 310 309 308 309 312 312 311 312 312 314 316 314 314 314 314 314 315 315 315 316 315 316 316 315 315 315 315 314 314 317 318 319 319 318 319 319 319 319 318 317 316 315 315 315 315 315 314 315 316 317 318 320 324 325 325 325 326 327
299 299 298 298 299 300 299 299 299 299 301 302 303 303 302 301 301 301 302 303 304 304 307 309 309 310 310 310 309 308 308 308 310 312 312 311 311 313 316 315 313 315 317 316 314 314 315 315 315 315 315 315 316 316 316 315 314 313 314 316 318 320 320 319 319 320 320 320 318 316 316 316 316 316 316 316 316 316 315 316 320 323 322 321 323 325 327
298 299 299 298 299 300 299 299 299 299 300 301 302 303 302 301 301 301 301 302 303 304 305 308 308 310 310 309 309 309 309 310 310 311 311 311 312 314 316 317 316 317 317 316 315 315 315 315 316 316 315 315 316 316 315 315 314 313 313 314 315 318 321 320 319 320 320 320 320 320 317 316 316 315 316 316 316 316 315 316 318 318 319 321 320 321 323
298 299 299 299 299 299 300 300 299 299 300 301 302 303 302 301 301 301 301 301 302 303 304 306 307 308 309 308 309 309 309 310 310 309 310 311 313 314 315 315 317 317 316 315 316 316 316 317 318 317 317 316 317 316 315 315 315 314 313 314 315 317 319 320 319 319 319 319 320 320 318 317 317 317 317 316 316 317 317 317 317 317 318 319 318 320 321
298 299 299 299 299 299 300 300 300 299 300 300 301 302 302 302 302 301 300 301 302 302 303 305 306 306 307 308 308 309 308 309 309 308 309 311 313 314 313 313 316 316 316 317 317 317 317 317 317 317 317 317 317 316 315 314 314 314 314 315 315 316 318 320 320 320 320 319 319 319 319 320 320 318 316 318 318 317 318 318 318 319 319 318 318 320 320
298 299 299 299 299 300 300 300 299 299 299 300 300 302 302 302 302 301 301 301 301 302 303 304 304 305 306 306 307 308 308 307 307 308 310 311 312 312 311 312 315 316 317 318 318 318 318 316 316 316 316 316 316 316 315 314 313 314 315 315 316 316 317 320 321 320 320 319 320 321 321 321 322 321 321 322 320 320 322 318 317 320 319 318 317 317 319
298 298 299 299 299 300 300 299 299 299 299 299 300 301 302 302 302 302 302 301 301 302 303 302 303 305 305 305 306 307 307 307 308 309 310 310 311 311 310 310 315 317 317 318 318 318 317 316 316 316 314 314 315 315 315 314 314 315 316 316 318 317 318 320 321 321 321 320 320 322 322 323 325 327 328 325 319 322 323 316 314 319 320 318 317 317 319
298 298 299 299 299 299 300 299 299 299 299 299 299 301 302 302 302 302 302 302 301 302 302 302 303 304 304 305 306 306 307 307 308 309 309 310 311 310 309 310 314 316 316 318 318 317 317 317 318 318 316 313 314 314 314 316 317 317 317 319 320 321 320 320 321 321 321 320 319 322 324 326 328 328 328 324 319 322 322 316 316 324 325 320 317 318 319
298 298 298 299 298 299 300 300 299 299 299 299 299 300 301 302 302 302 302 302 301 301 302 303 303 303 303 305 305 306 306 307 307 308 308 309 310 309 308 310 314 315 316 317 318 318 318 318 320 320 318 315 316 316 315 317 318 317 317 319 321 321 321 321 321 321 320 319 319 323 325 326 327 327 326 325 322 321 318 318 323 330 330 323 319 319 321
298 298 298 299 298 299 299 300 299 299 299 299 299 300 301 302 302 302 302 302 302 302 303 303 303 303 304 305 305 305 306 306 306 307 307 309 309 307 308 311 313 314 315 317 317 318 319 319 320 320 319 318 319 319 319 319 317 316 317 319 320 320 320 321 321 320 320 320 321 323 325 326 327 328 328 325 322 320 321 325 329 330 328 325 322 321 324
298 298 298 298 298 298 299 300 300 300 300 300 299 299 300 301 302 302 302 303 302 302 302 303 303 303 304 304 304 304 305 305 306 306 306 307 307 307 310 312 312 313 315 316 316 317 318 318 319 320 319 320 321 320 319 319 316 315 317 319 321 321 320 319 320 320 320 321 321 324 326 327 327 329 329 327 326 327 329 332 331 328 328 328 325 325 327
298 298 298 298 298 298 299 300 300 300 300 300 299 299 300 301 302 303 303 303 303 302 302 302 303 303 303 303 304 304 304 305 305 305 305 305 306 307 309 310 311 312 315 316 315 315 316 317 318 319 320 321 321 320 319 319 318 317 316 319 323 322 320 320 321 321 322 322 323 324 325 326 326 328 329 329 329 330 331 332 330 330 331 330 328 328 328
298 298 298 298 298 298 299 299 300 300 300 300 299 299 300 300 302 303 303 303 302 302 302 303 303 303 303 303 304 304 304 305 305 305 305 305 306 307 308 309 311 312 314 314 314 314 314 315 316 317 319 321 321 321 320 320 320 320 318 319 321 321 319 321 322 323 323 323 324 325 325 326 326 326 327 327 327 328 330 331 330 330 330 331 332 330 327
299 298 298 298 298 298 298 299 300 300 300 300 299 300 300 300 301 302 303 303 303 303 303 303 303 304 304 305 305 305 305 305 305 306 305 305 306 306 307 310 311 311 311 312 312 312 313 314 315 316 317 319 320 321 321 320 320 320 320 319 319 318 317 320 323 324 323 325 325 325 325 326 326 326 327 327 327 328 330 329 329 329 330 331 332 333 331
299 298 298 298 298 298 298 299 300 300 301 300 300 300 300 300 300 301 303 303 303 302 303 303 303 304 305 305 305 306 306 306 306 306 305 306 306 306 307 309 309 308 310 311 311 311 312 313 314 315 317 318 319 320 320 320 320 320 320 320 321 321 318 319 323 324 324 325 325 324 324 326 326 325 327 327 327 327 328 328 329 330 330 330 330 332 333
299 298 298 298 298 298 298 299 300 300 301 300 300 300 300 300 301 302 303 303 302 302 302 303 303 304 305 305 305 305 305 305 305 306 306 306 306 306 306 307 307 308 309 310 310 311 312 312 314 315 317 318 319 320 320 320 320 320 320 320 322 322 319 320 323 323 324 325 324 324 324 325 325 325 325 326 325 325 326 327 328 329 330 329 329 331 332
298 298 298 298 298 298 298 298 299 300 301 301 300 300 299 300 300 301 303 303 303 302 302 302 303 304 304 304 303 304 305 305 304 304 305 306 306 307 307 307 307 308 309 310 311 312 312 312 313 314 316 317 317 318 319 320 320 321 320 321 322 321 320 322 323 323 323 323 324 324 324 324 325 325 325 325 325 324 325 326 327 328 329 329 329 331 331
298 298 297 297 298 298 298 298 299 300 301 301 300 300 300 300 300 301 302 303 302 302 302 302 303 303 303 303 303 305 306 306 305 305 305 305 306 307 307 307 308 308 309 310 311 312 312 312 313 313 314 315 316 317 318 319 320 320 320 321 321 321 322 323 322 322 322 323 324 325 325 324 324 324 324 325 325 325 325 325 326 327 328 328 329 329 329
298 298 297 297 297 298 298 298 299 300 301 301 300 300 300 300 301 301 302 302 302 302 302 301 301 301 302 304 304 305 305 305 305 306 305 305 306 306 307 307 308 308 310 311 311 311 312 312 312 311 311 313 315 317 317 317 317 318 319 320 320 321 322 323 322 322 323 323 323 324 324 324 324 324 324 324 325 325 325 325 325 325 326 326 326 326 328
298 298 297 297 297 297 298 298 299 301 301 300 300 300 300 301 301 302 302 302 302 302 301 300 300 301 303 304 304 304 306 306 306 306 306 306 306 306 307 307 308 309 310 311 311 311 312 312 312 311 312 313 315 316 317 316 316 317 318 318 319 320 321 322 322 323 323 323 323 323 324 324 324 324 324 324 325 325 324 324 324 324 324 324 325 326 326
298 298 297 297 297 297 297 299 300 301 301 300 300 300 301 302 302 302 302 302 302 301 300 300 300 302 302 303 304 305 307 307 307 308 308 307 307 307 307 308 308 309 310 310 311 311 311 311 312 312 312 313 315 316 317 317 315 316 317 318 318 318 319 321 322 323 323 323 323 323 323 323 323 323 323 323 324 324 324 323 324 324 324 324 324 325 325
298 298 297 297 297 297 298 299 301 301 300 299 300 300 302 303 303 302 301 301 301 301 300 300 300 301 301 303 305 306 307 308 308 308 308 307 307 308 308 309 309 310 310 310 311 312 311 312 312 312 313 315 315 315 315 315 315 315 316 317 317 317 317 320 322 322 322 322 322 323 323 323 323 324 324 324 324 325 324 323 324 325 326 325 324 325 326
298 298 297 297 297 297 299 300 301 300 299 299 300 300 301 302 302 301 301 301 301 300 300 300 301 301 301 303 305 306 308 308 308 308 308 308 308 309 310 310 310 310 310 310 311 311 311 312 312 312 314 316 316 314 314 314 314 315 315 315 317 317 317 318 321 322 322 321 322 323 324 323 322 323 324 324 325 324 323 322 323 324 325 324 324 325 327
298 298 297 297 297 298 299 300 299 298 298 298 298 298 299 299 299 299 299 300 301 301 300 300 301 301 302 303 305 307 308 308 308 308 308 309 310 310 311 311 311 311 311 311 311 311 311 311 311 311 313 315 315 314 314 313 314 315 315 315 316 316 315 318 321 321 321 321 322 323 323 322 322 323 323 323 323 321 320 320 322 323 324 323 323 325 325
297 297 297 297 298 299 299 299 298 297 298 299 299 300 301 301 300 299 299 300 302 301 300 300 300 301 303 303 305 307 307 306 307 308 308 309 309 310 310 310 311 311 311 312 312 311 311 311 311 311 311 312 313 313 313 313 313 314 314 314 315 315 316 318 320 320 320 321 321 321 322 322 323 323 323 322 320 320 320 319 321 325 326 324 323 324 324
297 297 297 297 299 299 299 298 298 298 300 300 301 303 303 302 301 300 300 301 301 301 300 300 300 302 304 304 305 307 307 306 307 308 308 308 309 309 308 309 309 310 311 312 312 312 312 311 310 310 311 311 311 311 312 312 313 313 313 314 314 315 317 320 320 320 321 320 319 320 321 321 321 322 322 321 319 320 320 318 320 325 326 325 322 323 323
297 297 297 298 299 299 298 299 299 299 301 301 302 303 301 300 300 301 301 301 301 301 301 301 301 302 303 304 305 306 306 307 307 308 308 308 308 308 308 308 308 309 310 310 311 311 312 311 310 310 310 310 310 311 311 312 312 312 313 313 313 315 317 319 320 320 320 320 320 321 321 320 321 322 322 320 319 319 320 319 320 323 324 323 322 322 323
297 298 298 299 299 298 299 300 300 301 301 302 302 301 300 300 300 301 301 301 302 301 301 301 301 302 303 303 305 305 306 307 307 307 307 308 307 308 307 307 307 308 309 309 309 310 311 311 310 310 310 310 310 310 310 311 311 312 312 312 313 315 317 318 318 318 319 319 320 320 321 322 323 323 322 320 318 318 318 318 318 320 321 322 322 322 322
298 299 299 299 299 299 300 301 302 302 302 301 301 300 300 300 300 301 301 301 301 301 301 301 301 302 302 304 305 306 306 307 307 306 307 307 307 307 308 307 307 308 308 308 309 309 310 310 310 309 310 310 310 310 310 310 311 312 312 312 313 315 317 317 317 317 318 320 320 318 319 322 323 323 321 321 319 317 317 317 318 319 320 321 321 322 322
298 299 299 299 299 300 301 302 302 302 302 301 301 300 301 301 301 301 301 301 300 301 301 301 302 303 303 304 306 306 306 307 307 307 307 307 307 307 308 308 308 308 307 307 308 308 308 309 309 309 309 309 310 310 311 310 310 312 313 313 314 315 317 317 318 317 320 323 322 319 317 318 319 318 319 319 317 316 316 317 317 318 318 319 320 320 321
299 299 299 299 299 300 301 300 300 300 301 301 301 300 300 301 301 302 302 302 302 302 302 303 304 304 304 305 306 307 307 307 306 307 307 307 307 307 307 307 307 307 307 307 308 308 307 308 308 308 308 309 310 310 310 310 311 313 315 316 317 318 318 319 319 318 317 319 320 318 315 315 314 314 315 316 316 317 317 317 317 317 316 317 318 319 319
299 300 300 300 300 301 301 300 300 300 300 300 300 300 300 300 301 301 302 303 304 304 304 305 305 305 305 306 306 307 307 307 306 307 306 306 307 307 307 307 307 307 307 308 308 308 308 307 307 308 309 311 311 311 311 311 312 314 316 317 318 319 318 318 318 317 316 316 316 315 315 315 314 314 315 315 316 318 317 316 316 317 316 316 317 317 317
299 300 301 301 301 301 301 301 301 300 300 300 300 300 300 300 301 302 302 302 304 304 305 305 305 305 306 306 306 306 306 306 306 306 305 306 306 306 307 307 307 307 307 308 307 308 308 307 308 310 312 312 312 312 313 313 313 314 314 314 315 317 318 317 316 316 315 315 315 315 315 315 314 314 315 316 316 317 317 316 316 316 316 316 316 316 316
300 300 300 300 300 300 300 301 300 300 300 300 300 300 301 301 301 302 303 303 303 304 305 305 305 305 305 306 305 305 306 306 306 305 305 306 306 306 306 307 307 307 308 307 306 307 308 308 309 311 312 312 312 312 312 313 313 313 313 313 314 315 316 316 315 315 314 314 314 315 316 316 316 315 316 316 316 316 315 315 315 315 315 316 316 315 315
299 299 299 299 299 299 300 301 301 300 301 301 300 300 301 302 302 302 303 303 304 304 305 305 305 304 304 305 305 304 304 305 305 305 305 305 305 306 306 307 307 307 307 307 307 307 308 309 311 312 312 312 312 312 312 313 314 314 313 312 313 313 314 314 315 314 314 314 315 315 316 316 316 315 315 315 315 315 314 314 314 314 314 314 315 314 314
298 299 299 299 299 299 300 301 301 301 301 302 301 301 302 303 304 304 304 304 305 305 304 304 304 304 304 305 304 303 303 304 305 305 305 305 305 305 306 307 307 306 307 308 308 308 308 310 311 312 312 312 312 312 312 312 313 314 314 313 313 313 313 313 314 314 314 314 314 315 315 315 315 315 315 314 314 313 313 313 312 312 313 313 313 313 312
298 299 299 299 299 299 300 301 301 301 302 302 302 302 303 303 304 304 304 304 304 305 304 304 303 303 303 304 303 303 303 303 303 304 304 304 305 305 306 306 306 307 307 308 308 308 310 311 312 312 312 311 311 311 312 312 312 312 313 314 314 314 313 313 313 314 314 314 314 315 314 314 314 314 314 313 312 312 312 311 311 311 312 312 312 311 311
299 299 299 299 300 300 300 301 302 302 302 303 303 303 304 304 304 304 304 303 303 304 304 304 303 303 303 303 303 303 303 303 303 304 304 304 305 305 305 306 306 307 308 308 308 309 311 312 312 311 310 310 310 310 311 311 311 311 312 312 314 314 313 313 313 313 313 313 313 313 313 314 314 314 313 312 311 311 310 310 310 310 310 310 311 310 310
299 299 299 300 300 300 300 301 301 302 302 303 303 303 304 303 303 303 304 303 303 303 303 303 303 303 303 303 303 303 303 303 303 303 304 304 304 305 305 306 306 306 307 308 309 309 311 312 312 311 310 310 309 310 310 310 311 310 310 311 312 313 313 313 313 313 313 314 313 313 314 314 314 313 312 312 311 310 310 309 310 310 310 310 310 310 310
299 299 299 300 300 301 301 302 302 302 302 303 303 303 303 303 303 303 303 303 302 303 303 303 302 302 302 302 302 302 302 302 303 303 303 304 304 305 306 307 307 307 308 309 310 310 310 310 310 310 309 309 309 309 309 310 310 310 309 310 311 312 313 313 313 313 314 314 313 314 315 314 313 312 312 311 310 310 309 309 309 310 310 310 310 310 310
298 299 299 300 301 301 302 302 302 302 302 302 303 303 302 302 302 302 302 302 302 302 302 302 302 301 301 301 302 302 302 302 303 303 304 304 304 305 306 307 307 307 308 309 310 310 309 309 308 308 308 308 308 308 308 309 309 308 308 309 310 312 313 313 313 313 313 312 313 314 315 313 312 311 311 310 310 310 309 308 309 309 310 309 309 309 309
298 298 299 300 301 302 302 302 302 302 302 302 303 303 302 302 302 302 302 301 302 302 301 301 301 301 301 302 302 302 303 302 303 303 304 304 304 305 305 306 307 307 308 308 308 308 308 307 307 307 307 307 307 308 308 307 307 307 308 309 310 311 313 313 314 313 313 312 313 314 314 313 311 311 311 310 310 309 309 308 308 309 309 309 309 309 309
298 298 299 300 300 301 301 302 302 302 302 302 302 302 302 302 302 302 302 301 301 301 301 301 301 301 301 302 302 302 302 302 303 303 304 304 304 304 305 305 306 306 307 307 306 306 306 306 307 307 306 307 307 307 307 307 307 307 308 308 309 310 311 313 313 313 313 312 313 313 314 313 312 311 310 310 310 309 309 309 309 308 309 309 309 308 308
Wind_Speed
20 21 23 24 25 28 30 31 33 32 31 26 22 17 8 5 3 5 9 9 7 3 6 4 3 4 6 9 12 11 9 8 10 10 8 7 6 6 8 9 10 10 9 10 11 10 8 7 7 8 10 10 6 4 4 5 7 5 3 3 5 2 2 5 6 8 12 15 16 16 17 17 15 14 15 15 13 11 10 8 8 8 9 10 8 6 5
20 21 23 23 24 28 29 30 32 30 28 27 22 12 5 5 5 4 9 9 6 5 6 5 4 7 9 11 14 11 8 10 11 10 8 7 6 6 7 8 9 11 11 12 13 11 6 3 4 6 10 9 10 10 6 7 6 4 3 2 2 1 4 4 4 5 10 12 11 13 15 14 10 12 16 17 17 17 14 10 8 7 11 13 8 5 5
19 21 23 23 24 28 28 29 31 28 25 26 20 9 6 7 6 3 8 9 6 5 5 6 6 8 10 12 14 12 10 9 7 7 7 4 4 7 7 9 11 12 12 12 12 10 7 2 1 4 9 9 11 12 9 10 8 7 10 9 6 2 3 2 4 6 9 10 10 10 12 11 9 14 18 19 21 20 13 7 6 6 9 12 9 5 4
18 20 23 24 24 27 27 28 31 27 23 27 22 11 7 5 3 2 3 6 6 6 6 6 5 7 9 9 10 12 13 10 2 5 5 2 4 8 8 10 12 11 10 11 12 10 8 6 4 6 9 8 8 10 11 12 8 7 11 10 5 0 4 5 8 9 6 8 12 14 13 12 13 17 20 20 22 20 12 5 5 7 7 8 6 4 6
18 19 22 23 23 25 26 28 30 26 21 26 22 9 6 4 4 5 4 3 5 5 5 5 5 7 8 6 8 11 15 13 5 4 5 4 6 7 6 8 10 10 10 11 12 12 11 10 9 10 9 8 10 9 10 9 6 7 8 8 6 0 4 7 10 13 13 12 12 17 18 16 16 17 19 21 20 16 9 4 6 9 7 4 2 7 9
17 18 21 22 22 24 25 26 29 25 21 24 19 7 2 4 5 5 6 4 6 6 7 7 9 12 10 6 7 12 15 15 11 5 7 9 5 1 4 6 7 12 13 10 10 12 11 9 9 8 5 7 11 9 8 7 8 9 4 5 5 1 4 7 9 12 16 17 15 17 18 16 16 17 20 21 17 14 9 7 10 10 4 1 4 6 7
16 17 20 21 21 22 24 25 27 24 23 23 15 5 5 6 5 5 7 6 9 10 11 12 14 14 11 7 8 12 14 16 14 10 11 12 4 3 5 7 6 11 14 10 9 11 9 8 8 8 7 6 7 4 5 5 6 8 4 7 2 2 3 7 8 10 15 16 16 18 19 17 17 18 20 20 18 16 13 11 13 8 3 5 4 5 5
16 16 19 20 20 20 21 24 25 23 23 22 12 5 7 6 4 5 7 7 9 10 11 12 12 10 7 5 7 12 15 16 16 13 12 15 7 2 8 11 9 11 13 11 11 12 11 11 10 10 10 6 5 3 2 3 4 1 4 4 1 1 3 6 4 5 11 12 12 14 19 19 17 17 19 20 18 15 11 11 11 4 5 7 7 5 4
16 16 17 19 19 18 19 21 22 21 22 19 10 7 9 9 7 6 7 7 7 9 9 10 10 7 6 6 9 12 14 17 18 14 12 14 11 9 13 11 8 10 11 11 14 13 12 12 10 9 8 4 4 5 4 6 8 5 2 3 2 1 4 6 4 3 6 9 12 14 16 18 17 16 18 19 16 10 8 10 9 4 7 4 3 3 1
15 15 16 17 18 17 17 18 20 20 19 16 10 8 10 10 8 6 6 7 8 8 9 10 9 7 6 9 12 14 15 18 18 13 10 12 15 15 12 5 2 8 8 10 14 12 9 10 10 8 7 5 6 7 6 8 8 3 1 3 4 3 3 4 3 2 6 11 16 16 14 13 12 12 15 17 15 11 11 10 6 4 8 4 1 1 2
15 15 16 16 17 17 15 16 18 19 17 15 11 10 11 10 8 6 6 7 8 8 9 8 8 8 10 13 15 15 17 19 17 13 11 13 16 16 9 3 6 6 8 10 12 10 10 11 10 9 9 8 9 9 8 12 12 5 1 2 4 5 3 2 2 1 6 11 12 12 11 9 8 9 13 15 15 14 13 10 6 5 8 5 2 6 4
15 15 16 15 16 16 15 14 16 17 16 14 13 11 10 10 9 6 5 7 9 8 8 9 10 12 14 16 16 16 18 18 18 16 15 14 15 15 11 4 3 3 8 8 8 9 11 11 9 11 13 11 10 12 12 14 13 7 2 3 2 2 3 0 1 2 4 5 2 5 8 9 9 11 14 15 14 14 12 11 10 9 10 8 4 4 6
15 15 16 16 15 15 14 12 13 16 16 14 13 11 10 9 8 6 5 6 8 7 8 12 14 15 16 17 17 17 18 18 18 16 15 15 14 13 12 8 5 5 8 8 5 5 9 9 6 8 8 5 6 13 16 15 12 7 4 4 3 2 1 1 2 3 2 1 2 5 5 5 6 11 14 13 12 11 9 10 12 11 10 8 7 7 8
15 15 15 16 14 13 13 12 12 14 15 13 12 12 10 8 7 6 5 5 7 9 10 11 12 15 17 18 18 17 16 16 16 15 14 13 13 13 12 10 7 4 6 6 3 2 4 6 4 3 3 2 3 8 9 9 9 8 6 5 4 4 1 1 3 3 1 4 5 2 2 3 3 7 11 10 9 10 8 6 7 10 10 8 9 11 10
14 14 15 15 14 12 12 12 12 12 13 13 12 12 12 10 7 6 6 5 8 10 8 6 11 16 18 17 16 14 13 12 12 13 14 13 12 12 13 13 7 4 6 6 3 2 3 5 5 2 2 3 4 3 2 5 6 7 8 6 6 5 2 2 3 2 2 4 3 2 2 5 2 5 3 5 8 8 8 5 5 7 8 9 11 12 9
14 14 14 14 13 12 11 12 13 11 10 12 12 12 13 10 6 7 7 6 6 7 8 11 16 16 14 14 14 13 10 9 10 11 10 12 14 13 15 15 8 5 6 6 3 4 5 4 5 5 4 3 2 1 1 3 4 4 5 7 7 5 1 1 3 3 4 5 2 3 1 2 1 10 12 6 8 7 7 6 6 5 7 10 11 10 9
14 13 13 13 13 13 12 12 12 11 10 11 11 12 14 10 7 7 7 5 6 9 11 14 16 12 9 10 11 10 8 8 9 9 8 11 14 13 15 15 9 6 7 6 3 3 5 5 5 6 5 2 1 2 1 2 5 5 3 4 5 4 1 1 2 4 5 6 2 3 1 4 4 9 13 10 6 5 6 7 4 2 4 9 12 11 10
14 13 13 13 13 13 13 12 12 11 10 11 12 14 16 12 8 8 8 6 6 8 9 13 15 11 9 10 11 9 9 9 8 8 9 10 10 13 16 13 7 7 9 7 4 4 5 4 3 4 4 4 4 3 3 2 4 5 5 3 3 3 2 2 2 4 6 5 1 3 2 3 6 8 12 12 6 3 5 6 1 6 7 5 10 10 6
15 13 13 13 13 13 13 12 12 12 12 12 12 14 15 12 8 8 8 6 6 8 12 17 17 14 12 12 11 9 9 10 9 8 8 7 9 16 16 8 5 8 8 7 6 5 4 4 4 3 4 6 6 4 5 5 5 5 5 3 1 1 0 2 2 4 4 2 1 2 2 2 7 11 13 10 5 4 2 1 3 6 7 4 2 3 3
15 14 13 13 13 13 13 13 13 13 12 11 12 14 16 15 12 13 12 7 6 10 14 16 15 16 16 14 12 11 10 9 8 7 8 8 10 15 12 5 6 8 7 7 7 5 4 6 6 3 3 5 4 2 4 7 7 7 6 1 2 3 2 1 1 3 1 1 1 1 2 3 10 12 9 5 2 1 3 6 6 6 5 5 4 3 5
16 14 13 13 13 13 14 13 13 13 12 10 10 13 16 16 15 14 15 12 8 8 10 13 17 22 22 19 18 18 14 12 11 9 8 9 9 9 6 6 8 7 5 6 7 5 5 6 5 3 2 3 3 4 7 8 6 7 7 1 2 3 3 1 1 1 1 1 0 1 2 2 8 8 3 4 6 4 5 6 6 7 8 6 3 3 3
16 15 14 14 14 14 14 14 13 13 12 10 10 13 16 17 16 13 12 14 13 12 17 24 28 30 30 29 29 28 24 20 17 13 9 8 7 7 7 8 8 5 3 5 6 5 5 5 5 4 3 2 3 5 7 7 4 5 8 6 1 1 1 1 1 1 0 1 0 1 1 1 1 1 2 5 6 6 6 6 5 5 7 8 6 2 1
16 15 15 15 15 15 14 14 13 12 12 10 10 13 16 17 18 15 12 13 14 16 23 29 27 25 26 26 27 28 26 23 20 16 11 8 7 7 8 6 6 5 4 5 6 6 7 6 5 6 6 3 4 6 6 4 3 4 8 8 4 2 1 1 1 1 2 4 5 3 3 1 1 1 4 3 3 6 4 5 5 5 6 6 5 6 2
17 15 14 15 15 15 14 14 13 13 12 11 11 13 17 18 18 17 14 11 9 11 14 15 12 12 16 17 19 19 18 18 19 17 14 10 6 7 7 4 6 6 6 8 8 6 6 5 4 6 6 3 3 4 3 2 4 5 6 7 5 6 6 4 3 3 3 3 7 1 4 3 5 3 4 4 2 4 4 4 4 6 7 4 3 6 5
17 15 14 15 15 15 15 14 13 13 13 13 12 13 16 16 15 15 13 9 7 8 9 9 9 13 17 19 20 20 17 15 16 16 17 16 12 9 10 10 10 9 8 9 8 6 5 6 5 6 6 2 1 2 1 1 3 4 4 4 4 6 8 7 7 6 4 3 4 0 3 2 6 7 6 4 5 8 8 6 5 5 7 6 2 4 5
17 15 15 15 15 15 16 15 14 13 14 13 13 14 16 16 15 15 14 12 8 7 8 9 10 13 17 20 23 22 19 17 17 15 16 18 19 17 16 14 12 11 8 7 7 6 6 6 5 6 6 2 2 4 4 3 4 3 2 4 6 6 6 6 5 3 1 2 5 5 2 2 6 8 8 7 7 7 8 9 8 5 6 8 5 3 4
17 15 15 15 15 16 17 15 14 15 14 14 13 15 17 17 15 14 14 11 7 5 6 8 9 15 21 25 27 25 18 14 14 14 14 17 18 19 18 13 10 9 8 7 7 6 6 6 5 5 5 4 3 6 5 5 5 4 2 4 7 6 4 3 4 2 1 1 4 5 4 2 5 8 10 10 8 8 8 8 9 7 7 9 8 5 6
17 15 14 15 16 16 16 15 15 14 13 13 14 16 19 19 17 15 14 11 7 6 7 8 11 17 21 21 23 23 19 15 15 14 15 16 17 18 16 12 9 8 7 6 6 5 5 7 6 4 4 4 4 5 6 6 6 4 3 3 3 4 5 4 3 2 2 3 3 2 2 3 4 6 8 8 8 7 7 7 8 8 9 10 9 8 9
17 15 14 15 16 16 16 15 14 12 11 12 14 17 18 18 17 16 13 8 7 7 7 8 10 12 13 16 21 23 17 13 13 14 15 15 15 15 13 11 10 8 6 6 6 6 6 6 6 5 5 4 4 4 6 6 5 5 5 4 2 5 8 4 3 1 4 3 3 1 2 1 2 5 7 7 7 6 6 7 7 7 8 10 10 9 10
17 15 14 15 16 17 15 14 12 10 10 11 12 12 10 7 6 8 9 6 4 5 5 6 8 8 9 13 17 18 16 14 13 14 14 14 12 12 11 10 9 7 6 6 5 6 7 6 5 7 7 5 4 4 5 6 6 5 3 3 3 6 6 2 4 1 4 3 3 1 2 0 2 3 5 7 8 6 4 5 4 6 8 9 10 9 9
16 15 15 15 16 15 14 13 12 10 9 9 7 6 4 1 5 3 3 3 5 6 5 6 7 8 9 10 12 14 17 16 13 12 12 12 11 11 12 11 8 6 6 6 5 5 7 6 6 8 8 3 1 4 5 6 7 6 5 5 6 6 4 3 4 2 4 5 2 1 3 2 2 3 2 4 7 6 3 2 3 5 7 8 9 9 9
16 14 15 15 14 13 13 13 11 9 9 10 10 11 10 8 5 4 3 4 7 7 5 5 6 6 5 6 10 15 18 15 11 9 10 10 8 8 8 7 6 5 6 5 5 5 6 6 6 8 6 1 1 4 6 5 6 7 8 7 6 4 5 4 4 3 3 5 4 1 3 4 3 6 3 2 6 5 4 5 4 5 6 6 7 8 8
15 14 14 13 13 13 13 12 11 10 10 12 16 20 20 16 14 13 10 8 8 7 4 3 5 5 4 7 11 13 11 9 7 6 5 6 5 3 4 5 5 5 5 5 4 4 5 5 6 7 6 3 3 5 5 5 7 9 8 7 5 4 5 5 6 5 4 4 4 3 3 5 2 8 7 5 4 2 4 4 4 7 7 6 5 7 7
14 13 13 12 12 13 12 10 9 9 10 11 14 17 15 8 7 9 10 8 6 5 3 3 4 5 6 8 7 5 6 6 6 5 4 3 2 2 3 4 4 4 5 5 5 5 5 6 6 6 5 5 4 4 5 7 10 10 7 6 6 5 5 7 8 5 3 2 2 3 3 2 3 7 5 2 1 1 3 3 5 8 5 6 5 7 6
12 12 12 12 12 11 10 9 9 9 11 12 12 11 7 6 7 7 8 8 6 3 2 3 4 5 7 8 6 5 8 9 7 5 5 5 4 4 4 4 3 4 4 4 5 5 5 5 5 5 6 5 5 4 5 7 10 9 6 6 7 6 6 7 5 1 3 2 2 2 3 3 3 3 1 1 1 1 2 4 7 8 1 4 5 7 6
11 11 11 10 9 8 9 10 11 10 9 9 8 4 1 1 3 5 8 10 9 5 3 3 5 6 6 6 5 6 8 8 6 5 5 5 5 4 4 4 4 4 4 4 5 6 5 4 4 5 6 5 5 5 5 6 9 10 8 6 6 5 6 8 5 4 2 1 3 3 3 4 5 5 3 3 2 3 3 5 6 6 4 0 4 5 4
11 10 8 7 6 6 8 10 12 13 10 6 3 2 1 1 2 5 6 7 8 7 4 4 6 7 7 6 5 6 7 6 5 6 6 4 4 4 4 4 5 4 4 5 6 6 5 5 5 6 6 6 6 8 8 7 8 9 7 7 7 5 6 8 6 5 3 1 3 2 1 3 6 7 7 4 3 5 5 6 6 5 4 4 4 4 4
10 8 7 6 4 4 4 6 9 12 12 7 3 2 3 3 4 4 4 3 5 6 5 5 7 7 6 6 6 7 7 6 5 5 4 4 4 4 4 4 3 3 5 6 4 3 4 5 4 5 7 7 8 10 9 7 6 6 5 7 7 5 4 5 4 3 4 2 4 2 3 3 3 5 5 2 3 5 5 5 5 6 6 6 6 5 5
10 8 6 5 4 3 1 2 7 10 10 7 4 4 3 4 4 3 3 3 4 4 4 5 7 7 6 7 7 6 6 5 6 6 5 4 3 4 4 4 3 3 5 5 1 0 3 5 4 5 7 6 4 5 6 4 4 6 7 7 6 5 3 4 3 5 6 1 6 6 1 1 2 3 3 2 2 3 3 4 6 6 6 6 6 6 6
11 8 4 4 6 5 0 4 7 8 6 5 4 3 2 3 4 3 3 4 4 4 4 5 6 6 7 7 6 5 4 4 4 5 5 4 4 3 4 4 4 3 5 5 2 1 3 5 4 5 4 2 5 7 7 6 7 7 7 5 5 5 5 4 3 5 5 2 8 5 1 2 4 3 3 2 2 3 4 4 6 6 5 6 6 6 7
11 8 3 3 5 6 4 4 5 6 5 3 3 3 3 3 4 3 3 5 5 3 4 4 4 4 6 7 6 5 4 3 2 3 5 5 3 3 4 4 4 3 4 5 3 3 4 5 4 4 4 8 10 10 10 9 9 8 6 5 5 4 4 4 3 2 1 5 5 1 3 2 3 3 4 3 3 4 4 4 5 5 5 6 6 7 8
10 8 4 3 4 4 4 5 5 4 3 2 3 4 3 3 4 4 4 4 4 2 3 3 3 3 3 4 5 4 3 2 2 2 4 4 3 3 4 4 3 4 5 4 3 3 5 5 4 2 5 9 11 12 12 10 9 8 8 7 6 3 0 1 1 2 5 7 4 1 2 2 3 4 4 4 5 5 5 5 5 4 5 6 7 7 8
9 5 3 4 3 4 5 4 3 3 3 2 2 3 4 4 4 4 4 3 3 2 2 2 1 2 2 2 3 3 3 2 1 2 4 4 3 3 3 4 4 4 5 4 4 5 5 4 2 3 5 7 9 11 12 12 11 11 9 8 6 4 2 3 3 3 5 5 3 2 3 3 3 4 4 5 5 5 5 6 5 5 4 5 5 6 8
6 2 2 2 3 3 3 3 2 3 4 4 3 4 5 5 5 5 4 3 2 2 1 0 2 4 2 1 1 3 3 2 1 1 3 4 3 3 4 4 4 4 4 4 5 6 4 1 3 4 5 6 7 9 10 11 11 11 11 10 7 4 3 4 5 4 4 3 2 2 4 3 3 3 3 4 4 4 4 4 3 3 3 2 3 5 7
5 3 3 3 2 2 2 2 2 3 4 5 5 5 5 5 4 3 1 1 1 2 2 1 3 4 4 3 2 2 2 1 2 2 3 3 3 4 4 4 4 4 4 4 6 6 3 1 3 5 6 7 8 9 10 10 11 10 11 12 12 9 6 5 5 5 4 3 2 2 3 2 2 3 4 5 5 5 4 4 5 6 6 5 4 5 7
3 2 3 3 2 2 3 3 3 4 4 4 5 6 7 6 3 1 2 2 4 4 3 2 3 4 4 4 3 2 2 3 4 3 3 3 4 4 3 4 4 4 4 5 6 4 3 3 4 5 7 8 9 9 9 9 10 11 11 11 13 13 11 9 7 5 3 2 1 1 2 2 3 4 4 5 5 5 4 5 5 6 7 5 4 5 6
3 3 3 2 2 3 4 5 4 4 4 4 5 6 6 4 3 2 1 2 4 5 4 3 3 4 4 4 4 4 4 4 4 3 3 3 4 3 3 3 4 4 4 6 5 2 2 2 3 4 6 8 9 10 10 9 10 12 12 11 11 12 12 11 9 6 4 3 2 1 2 3 4 5 4 4 6 6 5 5 5 4 5 4 4 4 3
2 3 3 3 2 4 6 6 5 5 6 5 5 5 4 3 3 4 2 1 2 3 4 3 3 4 4 4 4 4 4 3 4 4 3 3 3 3 3 3 4 4 4 5 4 2 1 1 2 4 6 7 8 9 10 10 10 12 13 12 12 12 12 12 10 7 6 5 3 1 3 4 4 4 3 4 5 5 5 5 5 4 4 4 3 3 3
3 2 3 3 3 4 5 5 5 6 6 5 5 4 4 4 5 4 1 1 2 3 4 3 3 4 4 3 4 4 4 4 4 4 3 3 4 4 3 4 6 5 3 2 3 4 5 4 4 6 8 8 8 9 10 11 11 11 12 12 12 11 10 10 10 9 7 6 5 3 3 5 4 4 4 4 3 3 4 5 4 5 5 4 3 3 4
3 3 3 4 5 4 4 4 5 5 5 5 5 4 4 5 5 1 2 1 3 3 3 4 4 3 3 3 3 4 4 4 3 4 5 5 4 4 4 6 7 5 4 3 2 4 5 5 5 7 8 9 9 10 10 11 11 11 11 11 12 12 11 11 11 10 8 7 6 4 3 4 4 4 3 5 3 2 4 5 4 4 4 3 4 3 4
3 3 4 5 6 5 4 4 5 5 5 4 5 4 4 5 4 2 3 1 5 5 4 4 4 3 3 4 4 3 3 3 3 5 6 5 4 5 6 6 5 4 5 5 5 5 5 5 5 6 8 9 9 10 10 11 12 11 11 12 13 14 13 12 11 11 11 8 7 6 4 4 5 4 2 6 4 2 4 6 4 3 2 1 2 3 3
3 4 4 5 6 6 5 5 5 5 4 4 4 4 3 4 3 3 3 1 4 4 4 4 4 4 4 4 3 3 3 3 4 5 5 4 4 4 5 6 5 4 4 5 6 6 6 6 6 7 7 8 10 10 11 12 12 11 11 13 14 14 14 12 11 11 11 9 6 6 6 5 5 5 3 5 3 2 2 5 5 3 2 1 1 2 2
Wind_Direction
339 340 341 343 344 346 350 352 355 358 359 357 344 325 297 285 319 137 160 180 186 258 294 269 244 282 307 308 314 319 313 308 316 320 313 301 291 275 270 275 281 286 287 289 302 311 308 310 318 325 317 303 302 285 219 164 148 177 226 212 189 156 177 226 263 253 217 197 190 197 211 223 228 229 231 224 208 206 216 225 230 235 229 219 220 224 206
338 339 341 342 342 346 349 351 354 358 360 355 340 323 312 306 293 180 167 184 212 270 303 318 314 321 326 321 322 322 313 314 314 312 314 311 304 296 285 289 293 293 297 298 302 307 304 329 8 333 308 306 310 295 236 186 191 183 164 185 189 209 216 220 254 226 192 188 191 198 213 223 229 231 227 222 215 208 211 225 229 233 233 222 209 205 206
336 338 342 343 342 344 347 350 353 355 357 355 344 318 308 303 278 206 162 180 218 250 288 311 308 316 320 318 325 323 313 316 305 284 298 302 300 301 287 290 296 295 302 306 302 302 306 324 102 264 283 298 299 283 235 206 210 165 159 179 181 217 243 216 235 215 179 182 196 200 209 215 227 233 226 224 225 218 209 218 236 252 248 232 219 197 172
334 337 342 343 342 344 347 350 351 352 354 353 343 311 299 311 298 323 160 188 227 243 254 265 266 298 309 310 323 318 310 323 301 228 262 269 294 308 300 294 297 298 310 316 310 308 310 304 283 283 296 302 288 264 225 215 211 155 158 167 142 318 260 233 241 242 219 200 199 198 205 209 216 229 233 233 230 222 211 201 228 253 259 248 232 158 125
332 336 343 343 341 345 348 349 352 353 351 349 339 300 268 302 326 348 346 264 264 259 243 236 250 284 293 302 316 300 301 324 345 216 253 300 316 314 303 294 301 311 316 314 310 313 315 309 307 311 306 301 301 278 230 211 179 156 170 160 127 110 269 255 250 252 259 256 224 201 202 212 215 224 239 239 228 222 220 207 230 248 255 246 146 119 135
330 335 343 342 341 346 348 350 354 354 349 345 334 302 295 332 322 1 9 312 288 304 316 312 298 289 281 280 288 285 299 325 338 313 302 317 330 314 283 288 295 303 307 308 304 310 317 309 304 314 310 313 321 298 241 213 169 170 164 105 116 228 280 270 258 259 267 266 243 210 202 213 218 223 238 239 226 224 225 221 240 256 268 150 119 125 160
328 334 341 341 341 346 348 351 356 358 354 346 333 320 13 349 311 355 12 326 290 296 301 293 284 282 280 274 280 296 315 327 328 330 326 322 337 148 256 277 277 292 301 304 299 301 305 297 295 310 311 312 329 312 249 236 195 181 119 76 78 286 274 255 251 255 254 246 233 212 199 208 219 221 233 236 224 216 208 210 237 260 13 39 71 111 136
324 330 338 341 342 346 350 353 357 3 1 353 352 27 22 354 332 343 338 315 294 290 289 280 277 289 309 314 308 316 323 324 324 329 325 320 331 169 266 280 274 284 295 299 295 293 291 287 289 307 319 331 342 325 282 306 310 316 102 104 111 305 279 279 283 256 244 241 245 225 199 202 220 225 233 236 224 210 197 205 230 242 57 35 23 51 91
320 326 335 341 342 346 351 351 354 4 6 355 358 31 16 355 354 345 319 306 303 299 298 293 293 317 356 342 323 324 324 322 322 320 314 316 317 303 304 307 283 275 282 286 290 291 287 285 282 288 295 295 291 291 302 327 331 345 85 124 117 146 283 310 340 309 267 263 264 246 209 202 218 227 233 232 221 213 210 216 224 166 109 85 19 2 88
317 322 332 339 341 343 349 349 349 359 7 0 356 10 7 354 349 346 317 295 296 301 303 302 308 333 352 334 327 326 322 319 318 314 313 317 314 315 330 355 255 277 272 261 279 292 289 283 277 269 263 246 258 274 278 278 281 286 180 174 155 165 272 321 353 320 282 257 238 226 209 205 216 226 231 225 216 218 222 224 227 135 120 133 144 155 283
312 319 326 334 337 339 345 348 346 352 1 360 347 346 358 356 338 332 319 296 299 310 309 313 327 334 335 336 333 325 318 318 317 313 313 316 319 325 331 164 187 276 281 262 273 288 286 280 275 270 262 247 252 263 261 258 258 259 263 207 166 159 197 301 3 313 271 261 230 200 197 209 213 223 235 231 218 214 214 219 227 163 155 197 188 141 199
307 315 321 326 331 334 341 346 347 349 353 347 333 331 351 354 334 328 331 309 303 310 314 318 319 318 329 339 332 320 316 314 310 310 311 314 322 323 312 270 191 304 310 294 279 277 281 281 276 270 261 243 252 269 265 259 259 259 281 281 243 174 175 279 351 231 260 284 249 192 204 208 201 206 224 232 220 209 214 219 218 201 188 214 246 163 198
301 312 316 318 323 328 335 342 345 347 347 340 329 326 338 344 333 334 341 309 296 304 313 309 307 316 333 336 324 315 315 311 311 316 316 317 324 323 320 337 9 349 331 332 322 296 290 281 262 256 253 240 261 263 255 255 260 262 274 281 272 262 163 136 241 251 276 266 204 213 204 189 204 204 205 220 218 204 218 226 216 218 215 215 242 244 235
294 305 311 313 316 321 324 329 338 343 344 339 326 315 316 324 327 335 339 310 297 302 298 297 310 326 332 326 317 316 317 317 322 326 322 322 325 321 328 355 20 347 321 329 335 332 307 291 275 233 193 175 224 234 244 266 270 263 269 282 282 279 329 27 278 273 250 210 206 218 189 166 230 218 191 196 208 195 201 228 222 222 225 223 235 242 242
287 298 307 309 311 315 315 318 329 339 342 338 325 308 305 308 307 312 319 313 306 301 296 320 336 331 325 320 318 321 324 328 331 325 321 326 323 321 340 1 11 340 331 343 347 327 312 305 303 273 180 201 222 214 263 286 267 251 254 271 288 284 293 336 302 301 285 242 198 154 204 178 194 294 265 202 210 196 183 214 238 219 215 228 238 239 242
283 291 301 305 307 309 309 312 322 331 337 337 325 310 308 307 290 287 300 307 301 291 301 324 325 319 314 314 318 325 329 331 329 323 325 327 319 326 349 354 345 331 344 355 356 331 321 317 315 298 254 222 224 238 265 279 288 274 236 242 270 280 257 237 264 271 295 281 206 142 224 196 300 318 316 273 212 181 159 199 239 223 208 221 232 235 236
280 283 294 301 302 303 304 308 316 324 328 329 324 311 306 301 279 278 288 291 286 279 282 301 313 317 318 315 319 327 327 320 320 319 319 317 319 336 348 341 333 350 358 351 352 357 348 343 336 313 282 236 202 257 261 289 299 299 260 229 248 252 157 104 260 264 274 275 245 135 245 291 299 312 315 298 241 173 166 198 224 312 259 223 216 219 222
278 277 287 296 296 297 300 302 310 316 317 321 322 308 297 290 271 266 274 283 286 276 279 302 315 314 303 302 306 309 310 311 312 315 310 308 327 344 338 329 342 7 360 349 352 6 1 353 345 321 319 347 350 318 326 323 280 295 324 320 249 221 180 148 210 264 274 271 264 120 166 285 313 319 312 303 283 206 188 193 190 346 326 258 208 207 205
277 273 279 290 292 292 294 296 302 306 306 316 323 308 296 296 281 260 266 282 279 274 289 303 305 295 289 296 298 298 306 310 309 314 313 315 340 337 324 321 10 7 356 356 358 1 3 356 348 328 327 347 353 338 320 304 292 314 332 332 302 280 189 133 193 251 268 247 174 126 128 35 343 324 309 295 264 213 211 314 328 323 331 339 259 205 120
275 270 272 283 288 288 290 293 297 299 299 310 320 309 298 298 288 263 255 266 283 284 286 289 290 294 300 300 294 292 300 303 305 314 311 309 330 333 327 342 3 350 353 4 358 358 357 348 350 354 340 338 342 337 311 302 304 315 318 357 50 323 318 53 272 272 304 89 134 180 151 28 351 331 316 308 301 328 340 330 326 330 344 350 339 11 62
272 267 265 274 283 286 288 290 293 298 299 304 315 311 299 295 292 271 251 253 273 286 286 291 298 300 297 288 282 282 281 281 289 304 310 307 317 326 323 324 328 336 2 357 345 352 350 338 341 351 332 310 304 323 328 317 309 314 316 333 133 273 290 26 21 343 23 38 296 208 198 341 344 340 359 9 348 333 309 310 337 356 352 351 1 34 56
269 264 262 268 278 285 287 287 290 295 297 299 308 308 299 295 299 290 257 247 253 261 275 288 293 288 280 273 269 264 259 263 274 281 289 297 304 301 292 299 314 331 357 344 338 342 334 328 334 330 322 309 298 321 329 318 316 347 339 327 263 217 233 159 144 47 94 169 40 334 214 146 357 327 77 25 337 289 281 312 356 12 3 4 358 324 175
264 263 261 264 272 282 285 287 289 290 291 295 299 300 299 296 298 297 281 262 261 269 277 282 283 278 273 271 268 260 250 249 257 262 265 276 291 293 285 301 339 335 324 346 352 333 320 324 323 313 317 326 317 320 325 308 303 342 331 318 328 26 21 218 200 233 201 110 76 8 317 37 67 177 136 125 242 253 280 341 1 17 37 35 327 303 335
259 259 260 262 267 276 281 284 287 287 288 291 293 296 297 292 287 288 287 279 282 294 291 284 281 279 280 288 294 284 262 244 243 242 239 243 266 286 285 321 2 338 319 336 338 312 303 310 297 296 311 335 339 336 341 310 308 331 330 318 336 355 340 339 9 320 272 101 89 80 283 348 18 35 97 119 271 321 10 25 6 14 52 90 261 302 360
254 253 257 260 263 270 277 282 285 287 287 288 293 299 297 288 283 287 288 285 291 302 299 292 284 281 287 297 303 299 291 279 265 246 230 226 230 249 275 302 322 314 307 318 315 297 297 302 294 301 309 320 26 345 305 251 300 332 340 304 305 338 343 353 15 1 337 35 61 300 253 30 37 39 56 49 8 2 8 5 8 37 71 86 28 341 14
249 249 254 259 261 267 277 282 283 285 285 282 286 295 293 286 285 288 289 292 293 282 279 285 288 296 310 313 305 297 293 286 275 261 245 235 231 237 258 279 294 293 290 298 296 291 292 288 286 299 302 318 353 310 270 241 260 271 299 305 308 335 358 4 7 358 316 14 10 340 304 63 53 36 26 21 18 17 10 358 357 24 77 89 72 22 25
243 245 252 257 259 267 278 283 283 284 283 278 282 291 289 282 278 274 274 283 295 286 279 283 295 311 316 307 297 296 293 275 260 255 251 247 241 241 248 257 271 281 288 293 290 288 283 277 281 297 305 309 301 284 278 282 282 275 310 337 329 334 353 1 357 344 260 346 10 358 330 353 31 16 3 360 3 14 21 6 347 356 48 87 103 90 53
238 241 249 254 256 264 273 279 283 285 282 280 287 291 285 275 266 261 261 265 271 282 291 293 297 305 307 300 297 301 296 277 265 258 253 254 253 249 247 249 256 266 277 288 291 291 287 286 290 302 313 312 298 295 307 308 300 307 340 2 349 309 295 313 348 336 289 317 10 16 320 330 360 349 341 348 354 7 28 19 348 352 31 62 83 88 74
234 238 246 252 255 260 268 276 283 283 280 287 296 296 285 269 254 246 243 245 255 271 291 299 292 293 302 308 309 308 297 274 264 261 258 260 259 255 253 251 249 253 261 270 280 284 279 281 288 289 291 297 299 307 316 313 310 326 340 355 341 287 287 316 26 296 277 323 34 25 266 290 10 344 335 340 339 347 24 30 2 351 22 49 64 75 83
232 239 247 252 254 257 265 275 278 272 274 289 298 294 283 262 232 223 220 224 260 283 294 300 295 295 304 301 296 294 292 285 277 269 265 262 259 256 257 253 246 244 247 249 259 274 279 282 288 282 277 276 278 288 307 314 311 317 331 337 311 294 296 37 84 351 313 9 55 153 229 215 15 341 339 335 319 314 3 39 25 4 15 39 56 63 73
231 237 247 253 254 256 261 269 270 265 270 281 286 283 285 57 86 109 185 240 298 305 292 282 285 294 295 283 273 281 290 290 286 279 271 267 264 259 256 257 253 239 238 249 254 263 271 276 282 285 288 300 316 295 295 293 294 310 333 328 309 308 330 45 87 59 347 1 14 183 151 87 343 316 3 345 308 295 319 3 11 8 9 24 44 52 61
228 236 248 253 252 252 258 263 261 255 258 259 253 256 268 276 275 269 268 293 304 299 289 288 294 296 294 288 294 300 296 285 282 280 260 243 246 257 257 262 267 252 242 255 263 264 267 266 264 274 279 220 147 279 285 281 286 306 321 318 313 327 349 18 67 75 22 7 360 360 113 84 338 306 306 275 268 283 329 336 342 8 13 26 44 46 50
225 236 247 246 243 249 256 258 258 261 266 263 255 257 263 267 264 260 261 271 283 278 266 286 292 285 287 297 301 305 301 285 286 298 264 216 202 234 251 253 261 255 238 235 245 259 270 268 266 276 278 249 232 268 280 284 291 298 306 318 337 358 6 27 54 57 30 26 18 8 88 112 225 272 276 259 248 281 321 318 9 30 7 360 37 44 42
226 238 241 237 241 251 255 256 262 268 269 265 261 264 266 254 231 232 234 240 263 270 254 265 282 281 289 291 293 327 353 329 308 312 307 269 219 243 259 251 245 241 232 230 238 251 265 272 278 286 284 266 253 262 276 285 291 298 311 332 345 356 25 52 57 41 349 354 11 360 33 89 225 250 256 243 217 245 288 306 64 67 2 325 21 46 33
228 233 230 234 244 252 257 260 259 256 258 257 256 261 253 210 195 206 211 215 234 258 239 233 256 281 298 297 300 352 358 333 305 299 310 307 296 283 274 259 241 231 224 228 244 254 262 272 277 279 279 273 259 254 268 282 289 297 314 335 341 354 38 71 81 278 275 292 333 357 16 1 303 282 275 346 26 44 330 349 68 97 144 308 27 52 32
222 222 225 236 245 250 258 257 242 235 246 250 237 226 224 207 214 218 215 219 234 258 281 269 259 272 290 294 301 331 333 319 310 318 317 306 298 289 273 262 260 251 233 235 253 260 262 265 269 270 273 276 276 275 281 292 299 306 321 341 345 7 68 94 124 183 203 319 323 332 3 354 328 319 321 334 19 59 35 17 53 99 140 12 43 60 56
210 213 218 227 234 241 252 246 228 220 226 230 207 204 285 290 237 222 219 225 231 232 247 273 265 262 274 280 288 312 317 313 318 322 314 308 316 318 299 279 275 269 255 250 254 260 260 252 255 270 275 276 284 289 289 290 291 296 319 350 357 17 73 96 124 152 139 353 291 273 66 17 334 317 311 323 28 53 41 28 38 61 80 69 52 54 68
199 202 208 212 218 235 247 233 212 208 214 222 244 258 221 199 209 221 213 212 218 211 213 248 257 255 263 271 274 286 301 312 316 309 309 329 335 317 293 279 276 278 277 270 260 267 268 249 239 262 270 265 269 277 277 275 281 295 331 358 356 5 74 109 135 129 86 17 296 262 136 143 222 249 258 288 38 42 30 31 43 47 52 58 52 46 54
188 188 196 209 221 242 268 141 153 171 189 207 233 242 210 192 215 231 201 192 216 217 212 232 245 243 244 254 264 276 290 302 307 305 311 334 335 316 308 315 321 305 287 282 280 55 278 264 250 258 263 262 284 313 317 327 345 355 4 2 345 349 51 90 78 61 71 123 252 261 271 187 217 205 186 155 87 62 41 40 48 50 49 48 45 43 51
184 185 193 219 226 228 188 108 146 172 196 215 222 230 230 217 222 221 192 197 217 215 206 223 235 229 232 251 275 292 286 278 294 310 315 313 307 304 306 310 315 304 287 286 301 322 283 279 274 275 282 348 28 7 354 5 14 9 8 8 1 9 31 45 52 60 70 234 247 250 340 357 335 2 44 53 67 79 68 53 51 52 53 50 43 39 41
181 186 195 235 225 209 177 153 179 204 227 236 225 230 242 239 237 238 227 233 238 214 190 219 239 218 214 239 265 276 269 263 282 299 298 291 288 289 289 291 296 291 283 286 298 299 286 278 272 289 355 29 24 4 358 10 10 359 1 23 41 43 24 10 27 63 329 285 284 340 59 6 344 16 34 34 56 75 76 66 58 51 49 52 49 38 35
181 191 212 259 255 219 201 204 212 216 221 234 242 246 244 240 242 238 229 245 267 250 180 199 250 258 233 244 261 270 284 317 329 290 282 289 301 300 296 297 292 275 276 291 304 293 279 270 269 315 19 23 11 2 5 8 358 346 352 11 33 59 76 298 272 237 265 284 302 57 81 24 14 34 42 52 66 72 71 67 63 49 44 51 52 43 36
186 199 234 260 253 229 219 220 213 205 208 215 225 237 237 230 234 236 224 219 241 251 192 174 255 285 271 251 264 274 276 279 294 288 284 293 308 304 288 283 279 276 287 300 288 267 263 272 306 359 10 7 3 4 4 358 351 349 348 352 8 28 7 311 283 261 275 296 324 42 81 74 56 50 56 67 74 75 68 56 40 22 24 42 51 47 34
179 188 236 239 224 213 214 208 184 188 209 211 205 217 230 224 217 227 239 225 196 189 177 266 284 286 288 273 281 287 280 254 191 268 275 277 288 291 282 277 281 291 302 302 283 272 275 342 26 5 349 351 0 3 358 355 356 354 343 335 338 351 342 318 306 294 287 296 330 57 81 84 84 87 93 93 93 94 89 72 38 359 343 355 27 44 36
159 166 188 204 210 199 188 182 178 196 218 224 217 222 239 243 223 199 217 323 286 205 198 254 294 292 294 296 288 285 286 261 232 250 275 284 283 280 277 283 295 303 300 286 275 273 280 8 28 2 350 355 0 358 357 359 359 353 346 342 339 335 326 313 304 300 303 311 345 72 89 100 111 106 101 96 85 69 55 42 24 359 340 338 2 28 27
178 188 180 188 207 209 204 204 200 203 217 226 223 226 242 262 287 62 66 353 299 262 250 307 320 294 288 295 291 272 263 267 268 275 296 298 284 276 280 284 285 287 284 275 272 283 316 357 5 351 343 347 352 353 357 3 3 357 354 350 340 332 328 320 310 302 300 308 330 69 98 117 117 113 109 102 89 69 49 45 32 359 337 339 19 30 10
203 203 200 210 213 210 217 221 221 224 231 233 232 237 249 273 307 324 327 322 310 300 305 319 308 285 279 280 277 272 271 277 282 282 281 277 277 281 291 287 274 266 270 276 281 304 355 334 322 330 336 342 348 348 347 356 4 2 355 347 338 330 325 318 315 314 310 306 314 114 137 132 127 130 129 109 91 70 47 45 48 22 348 354 32 37 353
194 184 202 223 216 209 217 223 229 240 248 250 248 253 264 281 285 282 293 41 353 315 310 304 293 290 281 260 254 267 274 273 272 270 263 262 271 274 273 273 268 262 266 280 296 329 352 281 299 338 345 345 349 347 342 345 356 360 353 343 336 330 320 313 316 322 316 303 293 224 167 148 140 145 138 109 96 84 58 38 35 34 20 8 17 28 355
262 225 213 225 235 236 232 230 233 240 246 251 254 253 255 260 263 268 304 125 216 266 296 300 290 290 291 280 271 273 266 256 259 262 252 245 254 262 267 270 270 274 289 319 327 334 337 343 356 357 348 345 349 349 342 339 344 350 347 338 332 325 313 305 309 315 305 286 275 247 174 154 166 185 166 135 107 87 79 65 46 41 34 13 7 32 28
251 246 231 227 234 242 236 231 239 243 241 242 244 237 234 247 254 259 62 320 265 271 287 279 261 256 272 286 287 278 268 263 264 264 261 255 252 255 263 265 269 286 324 348 324 310 318 335 352 353 348 347 349 345 338 335 336 339 338 333 329 325 316 305 303 304 298 283 274 266 197 169 205 226 167 126 105 70 88 94 82 66 53 355 339 23 43
217 239 239 231 233 241 241 237 240 239 234 241 246 236 231 245 243 123 93 319 277 271 264 258 251 239 241 250 258 265 278 290 280 266 264 267 266 261 264 270 281 315 332 323 313 314 323 338 352 351 345 343 341 336 333 330 329 329 333 334 329 324 317 305 295 297 301 294 277 263 238 208 231 255 125 114 128 155 131 123 123 125 143 224 314 13 37
208 225 235 234 234 239 246 251 253 249 246 254 256 245 238 245 230 147 126 230 262 257 257 264 266 258 249 247 252 266 280 289 281 270 266 269 270 269 279 294 309 320 314 307 312 324 329 334 343 346 343 340 337 334 332 329 327 331 337 334 327 323 320 310 293 287 293 293 273 251 241 230 233 238 179 137 157 226 152 133 142 146 135 126 354 3 358